Weather History for Fort Myers, FL

Change the Weather History Date:

Saturday, March 30, 2013

  Actual Average Record
Temperature  
Mean Temperature 66 °F 72 °F  
Max Temperature 79 °F 82 °F 90 °F (1945)
Min Temperature 53 °F 61 °F 40 °F (1955)
Degree Days  
Heating Degree Days 0 0  
Month to date heating degree days 85 21  
Since 1 July heating degree days 201 281  
Cooling Degree Days 1 7  
Month to date cooling degree days 66 170  
Year to date cooling degree days 377 355  
Growing Degree Days 16 (Base 50)    
Moisture  
Dew Point 50 °F    
Average Humidity 58    
Maximum Humidity 89    
Minimum Humidity 35    
Precipitation  
Precipitation 0.00 in 0.09 in 2.16 in (1937)
Month to date precipitation 0.78 2.79  
Year to date precipitation 3.26 6.88  
Sea Level Pressure  
Sea Level Pressure 30.21 in    
Wind  
Wind Speed 5 mph (SSE)    
Max Wind Speed 15 mph    
Max Gust Speed 22 mph    
Visibility 10 miles    
Events      
T = Trace of Precipitation, MM = Missing Value Source: NWS Daily Summary

Daily Weather History Graph

Daily Weather History Graph

Search for Another Location

Airport:

Trip Planner

Search our weather history database for the weather conditions in past years. The results will help you decide how hot, cold, wet, or windy it might be!

Date:

Astronomy

Mar. 30, 2013 Rise Set
Actual Time 7:20 AM EDT 7:43 PM EDT
Civil Twilight 6:56 AM EDT 8:06 PM EDT
Nautical Twilight 6:29 AM EDT 8:34 PM EDT
Astronomical Twilight 6:02 AM EDT 9:01 PM EDT
Moon 11:26 PM EDT (3/30) 9:35 AM EDT (3/30)
Length of Visible Light 13h 09m
Length of Day
12h 23m
Waning Gibbous, 86% of the Moon is Illuminated
Mar 30
Waning Gibbous
Apr 3
Last Quarter
Apr 10
New
Apr 18
First Quarter
Apr 25
Full

Hourly Weather History & Observations

Time (EDT) Temp. Dew Point Humidity Pressure Visibility Wind Dir Wind Speed Gust Speed Precip Events Conditions
12:53 AM 57.9 °F 44.1 °F 60% 30.25 in 10.0 mi ENE 3.5 mph - N/A   Clear
1:53 AM 57.9 °F 45.0 °F 62% 30.24 in 10.0 mi ENE 4.6 mph - N/A   Clear
2:53 AM 57.0 °F 48.0 °F 72% 30.24 in 10.0 mi East 3.5 mph - N/A   Clear
3:53 AM 55.0 °F 48.9 °F 80% 30.23 in 10.0 mi Calm Calm - N/A   Clear
4:53 AM 55.0 °F 50.0 °F 83% 30.21 in 10.0 mi Calm Calm - N/A   Clear
5:53 AM 54.0 °F 50.0 °F 86% 30.22 in 10.0 mi SE 3.5 mph - N/A   Clear
6:53 AM 53.1 °F 50.0 °F 89% 30.23 in 10.0 mi SE 3.5 mph - N/A   Clear
7:53 AM 55.0 °F 50.0 °F 83% 30.26 in 10.0 mi ESE 4.6 mph - N/A   Clear
8:53 AM 62.1 °F 51.1 °F 67% 30.27 in 10.0 mi ESE 5.8 mph - N/A   Clear
9:53 AM 68.0 °F 52.0 °F 56% 30.27 in 10.0 mi SSE 8.1 mph - N/A   Clear
10:53 AM 72.0 °F 51.1 °F 48% 30.27 in 10.0 mi South 11.5 mph - N/A   Clear
11:53 AM 73.9 °F 48.9 °F 41% 30.26 in 10.0 mi Variable 5.8 mph - N/A   Scattered Clouds
12:53 PM 75.0 °F 48.9 °F 40% 30.24 in 10.0 mi ESE 6.9 mph - N/A   Scattered Clouds
1:53 PM 78.1 °F 48.0 °F 35% 30.21 in 10.0 mi Variable 4.6 mph - N/A   Clear
2:53 PM 77.0 °F 51.1 °F 40% 30.18 in 10.0 mi West 13.8 mph - N/A   Clear
3:53 PM 77.0 °F 50.0 °F 39% 30.17 in 10.0 mi SW 10.4 mph 16.1 mph N/A   Clear
4:53 PM 77.0 °F 48.9 °F 37% 30.15 in 10.0 mi SW 9.2 mph - N/A   Clear
5:53 PM 73.9 °F 48.9 °F 41% 30.14 in 10.0 mi WSW 9.2 mph - N/A   Clear
6:53 PM 73.0 °F 48.9 °F 42% 30.15 in 10.0 mi WSW 8.1 mph - N/A   Clear
7:53 PM 70.0 °F 48.9 °F 47% 30.17 in 10.0 mi SW 4.6 mph - N/A   Clear
8:53 PM 68.0 °F 51.1 °F 55% 30.18 in 10.0 mi WSW 3.5 mph - N/A   Clear
9:53 PM 66.9 °F 52.0 °F 59% 30.19 in 10.0 mi Calm Calm - N/A   Clear
10:53 PM 64.9 °F 52.0 °F 63% 30.21 in 10.0 mi Calm Calm - N/A   Clear
11:53 PM 62.1 °F 53.1 °F 72% 30.21 in 10.0 mi ENE 4.6 mph - N/A   Partly Cloudy